Change the Weather History Date:

Tuesday, May 7, 2013

  Actual Average Record
Temperature  
Mean Temperature 56 °F 48 °F  
Max Temperature 65 °F 54 °F 73 °F (1972)
Min Temperature 46 °F 42 °F 34 °F (2002)
Degree Days  
Heating Degree Days 9 17  
Month to date heating degree days 99 122  
Since 1 July heating degree days 6087 6067  
Cooling Degree Days 0    
Month to date cooling degree days 0  
Year to date cooling degree days 0  
Growing Degree Days 5 (Base 50)    
Moisture  
Dew Point 37 °F    
Average Humidity 0    
Maximum Humidity 0    
Minimum Humidity 0    
Precipitation  
Precipitation 0.00 in 0.19 in 2.34 in (2012)
Month to date precipitation 2.08 1.33  
Year to date precipitation 34.56 34.19  
Snow  
Snow 0.00 in 0.00 in T in (1955)
Month to date snowfall 0.0 0.1  
Since 1 July snowfall 12.8 34.9  
Snow Depth 0.00 in    
Sea Level Pressure  
Sea Level Pressure 30.06 in    
Wind  
Wind Speed 9 mph (NW)    
Max Wind Speed 20 mph    
Max Gust Speed 23 mph    
Visibility 10 miles    
Events      
T = Trace of Precipitation, MM = Missing Value Source: NWS Daily Summary

Daily Weather History Graph

Daily Weather History Graph

Search for Another Location

Airport or City:

Trip Planner

Search our weather history database for the weather conditions in past years. The results will help you decide how hot, cold, wet, or windy it might be!

Date:

Astronomy

May. 07, 2013 Rise Set
Actual Time 4:52 AM AKDT 8:34 PM AKDT
Civil Twilight 4:07 AM AKDT 9:19 PM AKDT
Nautical Twilight 3:04 AM AKDT 10:23 PM AKDT
Astronomical Twilight 12:56 AM AKDT 12:10 AM AKDT
Moon 3:53 AM AKDT (5/7) 6:24 PM AKDT (5/7)
Length of Visible Light 17h 11m
Length of Day
15h 41m
Waning Crescent, 5% of the Moon is Illuminated
May 7
Waning Crescent
May 9
New
May 17
First Quarter
May 24
Full
May 31
Last Quarter

Hourly Weather History & Observations

Time (AKDT) Temp. Windchill Dew Point Humidity Pressure Visibility Wind Dir Wind Speed Gust Speed Precip Events Conditions
12:53 AM 48.0 °F - 39.9 °F 74% 30.12 in 10.0 mi NNW 8.1 mph - N/A   Clear
1:53 AM 46.9 °F - 39.0 °F 74% 30.11 in 10.0 mi NNW 6.9 mph - N/A   Clear
2:53 AM 46.9 °F - 39.9 °F 77% 30.11 in 10.0 mi NNW 9.2 mph - N/A   Clear
3:53 AM 46.9 °F - 39.9 °F 77% 30.11 in 10.0 mi NNW 10.4 mph - N/A   Clear
4:53 AM 46.0 °F 42.5 °F 39.0 °F 76% 30.10 in 10.0 mi NNW 6.9 mph - N/A   Clear
5:53 AM 46.9 °F - 39.0 °F 74% 30.09 in 10.0 mi NNW 10.4 mph - N/A   Clear
6:53 AM 48.9 °F - 39.0 °F 69% 30.09 in 10.0 mi NNW 10.4 mph - N/A   Clear
7:53 AM 51.1 °F - 39.0 °F 63% 30.09 in 10.0 mi NNW 12.7 mph - N/A   Clear
8:53 AM 52.0 °F - 39.0 °F 61% 30.09 in 10.0 mi NNW 11.5 mph 21.9 mph N/A   Clear
9:53 AM 55.0 °F - 37.9 °F 53% 30.07 in 10.0 mi NW 15.0 mph - N/A   Mostly Cloudy
10:53 AM 57.0 °F - 39.9 °F 53% 30.07 in 10.0 mi NW 10.4 mph - N/A   Mostly Cloudy
11:53 AM 57.9 °F - 39.0 °F 49% 30.07 in 10.0 mi NW 11.5 mph - N/A   Mostly Cloudy
12:53 PM 60.1 °F - 37.0 °F 42% 30.06 in 10.0 mi WNW 11.5 mph - N/A   Partly Cloudy
1:53 PM 63.0 °F - 37.0 °F 38% 30.05 in 10.0 mi WNW 10.4 mph - N/A   Scattered Clouds
2:53 PM 63.0 °F - 36.0 °F 37% 30.04 in 10.0 mi NW 10.4 mph - N/A   Clear
3:53 PM 63.0 °F - 28.9 °F 28% 30.04 in 10.0 mi NW 11.5 mph - N/A   Mostly Cloudy
4:53 PM 64.0 °F - 30.9 °F 29% 30.03 in 10.0 mi NW 10.4 mph - N/A   Mostly Cloudy
5:53 PM 62.1 °F - 34.0 °F 35% 30.03 in 10.0 mi NNW 9.2 mph - N/A   Mostly Cloudy
6:53 PM 60.1 °F - 34.0 °F 38% 30.02 in 10.0 mi NNW 10.4 mph - N/A   Clear
7:53 PM 57.9 °F - 34.0 °F 41% 30.02 in 10.0 mi NNW 8.1 mph - N/A   Clear
8:53 PM 54.0 °F - 36.0 °F 51% 30.03 in 10.0 mi NW 5.8 mph - N/A   Clear
9:53 PM 52.0 °F - 39.0 °F 61% 30.03 in 10.0 mi NW 6.9 mph - N/A   Clear
10:53 PM 51.1 °F - 39.0 °F 63% 30.03 in 10.0 mi NNW 8.1 mph - N/A   Clear
11:53 PM 50.0 °F - 39.9 °F 68% 30.03 in 10.0 mi NW 5.8 mph - N/A   Clear